Flag for Russia Weather past 2 weeks in Orenburg, Russia

Now
7 °F

Clear.


Feels Like: -4 °F
Forecast: 4 / 19 °F
Wind: 6 mph from Northeast

Location: Orenburg / Tsentralny

Current Time: Mar 3, 2015 at 2:16:55 AM

Latest Report: Mar 3, 2015 at 1:30 AM


Visibility: N/A

Pressure: 30.30 "Hg

Humidity: 85%

Dew point: 3 °F

Location of OrenburgLocation

Historic Weather in Orenburg — Graph

°F

Orenburg temperature yesterday

Maximum temperature yesterday: 25 °F (at 3:30 PM)
Minimum temperature yesterday: 0 °F (at 7:30 AM)
Average temperature yesterday: 11 °F

Past Weeks' High & Low Weather Summary

 TemperatureHumidityPressure
High27 °F (Feb 22, 3:00 PM)93% (Feb 22, 4:00 AM)30.77 "Hg (Feb 22, 4:00 AM)
Low-17 °F (Feb 20, 8:00 AM)53% (Feb 19, 10:30 AM)29.95 "Hg (Feb 16, 3:30 AM)
Average9 °F80%30.39 "Hg
* Reported Feb 16 1:00 AM — Mar 3 1:00 AM, Orenburg, Weather by CustomWeather, © 2015

Note: Actual official high and low records may vary slightly from our data, if they occured in-between our weather recording intervals... More about our weather records

Advertising

Orenburg weather history for previous 24 hours

 ConditionsComfort  
Time TempWeatherWind HumidityBarometerVisibility
1:00 AM
Tue, Mar 3
3 °FClear.3 mph78%30.30 "HgN/A
12:30 AM5 °FClear.1 mph85%30.30 "HgN/A
12:00 AM5 °FClear.1 mph78%30.30 "HgN/A
11:30 PM
Mon, Mar 2
7 °FClear.3 mph78%30.30 "HgN/A
11:00 PM7 °FClear.8 mph85%30.30 "HgN/A
10:30 PM5 °FClear.6 mph78%30.30 "HgN/A
10:00 PM7 °FClear.3 mph78%30.30 "HgN/A
9:30 PM7 °FClear.3 mph78%30.30 "HgN/A
9:00 PM7 °FClear.6 mph78%30.30 "HgN/A
8:30 PM9 °FSunny.3 mph72%30.30 "HgN/A
8:00 PM10 °FSunny.3 mph72%30.30 "HgN/A
7:30 PM12 °FSunny.6 mph73%30.30 "HgN/A
7:00 PM14 °FSunny.6 mph73%30.30 "HgN/A
6:30 PM19 °FSunny.3 mph68%30.30 "HgN/A
6:00 PM18 °FSunny.6 mph73%30.30 "HgN/A
5:30 PM21 °FSunny.6 mph74%30.30 "HgN/A
5:00 PM23 °FSunny.6 mph68%30.30 "HgN/A
4:30 PM25 °FSunny.6 mph69%30.30 "HgN/A
4:00 PM25 °FSunny.3 mph69%30.33 "HgN/A
3:30 PM25 °FSunny.3 mph63%30.33 "HgN/A
3:00 PM23 °FSunny.6 mph68%30.33 "HgN/A
2:30 PM23 °FSunny.6 mph63%30.33 "HgN/A
2:00 PM21 °FSunny.3 mph68%30.36 "HgN/A
1:30 PM21 °FSunny.3 mph63%30.36 "HgN/A
1:00 PM18 °FSunny.3 mph68%30.36 "HgN/A
12:30 PM18 °FSunny.3 mph68%30.36 "HgN/A
12:00 PM16 °FSunny.3 mph67%30.36 "HgN/A
11:30 AM14 °FSunny.3 mph73%30.36 "HgN/A
11:00 AM12 °FSunny.3 mph73%30.39 "HgN/A
10:30 AM9 °FSunny.3 mph78%30.39 "HgN/A
10:00 AM7 °FClear.3 mph78%30.39 "HgN/A
9:30 AM7 °FClear.3 mph78%30.39 "HgN/A
9:00 AM3 °FPassing clouds.3 mph85%30.39 "HgN/A
8:30 AM1 °FPassing clouds.3 mph78%30.39 "HgN/A
8:00 AM1 °FPassing clouds.3 mph78%30.39 "HgN/A
7:30 AM0 °FClear.3 mph84%30.39 "HgN/A
7:00 AM3 °FClear.3 mph78%30.39 "HgN/A
6:30 AM1 °FPassing clouds.6 mph78%30.39 "HgN/A
6:00 AM7 °FPassing clouds.6 mph78%30.39 "HgN/A
5:30 AM7 °FPassing clouds.10 mph85%30.39 "HgN/A
5:00 AM7 °FPassing clouds.10 mph85%30.39 "HgN/A
4:30 AM3 °FIce fog.6 mph85%30.39 "Hg2 mi
4:00 AM7 °FIce fog.3 mph85%30.39 "Hg2 mi
3:30 AM10 °FIce fog.6 mph85%30.42 "Hg2 mi
3:00 AM3 °FIce fog.6 mph85%30.42 "Hg2 mi
2:30 AM7 °FIce fog.8 mph85%30.42 "Hg2 mi
2:00 AM5 °FIce fog.8 mph85%30.42 "Hg2 mi
Weather by CustomWeather, © 2015

See weather overviewHow to use our weather pages